Tiempo cada hora Abernethy

Hoy, 30 Octubre, Viernes

Tiempo Temperatura Precipitaciones Viento Presión Humedad
00:00 +2°C° 0 mm 1 mps 710 mmHg 97%
01:00 +2°C° 0 mm 1 mps 711 mmHg 97%
02:00 +2°C° 0 mm 1 mps 711 mmHg 96%
03:00 +2°C° 0 mm 1 mps 710 mmHg 96%
04:00 +2°C° 0 mm 1 mps 710 mmHg 96%
05:00 +1°C° 0 mm 1 mps 710 mmHg 95%
06:00 -1°C° 0 mm 2 mps 709 mmHg 95%
07:00 -1°C° 0 mm 3 mps 709 mmHg 94%
08:00 -2°C° 0 mm 4 mps 708 mmHg 93%
09:00 0°C° 0 mm 5 mps 707 mmHg 86%
10:00 +1°C° 0 mm 6 mps 706 mmHg 79%
11:00 +3°C° 0 mm 7 mps 704 mmHg 71%
12:00 +4°C° 0 mm 8 mps 703 mmHg 69%
13:00 +4°C° 0 mm 8 mps 701 mmHg 67%
14:00 +5°C° 0 mm 9 mps 699 mmHg 65%
15:00 +5°C° 0 mm 8 mps 698 mmHg 69%
16:00 +5°C° 0 mm 7 mps 696 mmHg 74%
17:00 +5°C° 0 mm 7 mps 695 mmHg 78%
18:00 +6°C° 0 mm 7 mps 694 mmHg 71%
19:00 +7°C° 0 mm 8 mps 693 mmHg 63%
20:00 +9°C° 0 mm 8 mps 692 mmHg 56%
21:00 +7°C° 0 mm 9 mps 692 mmHg 63%
22:00 +6°C° 0 mm 10 mps 692 mmHg 69%
23:00 +5°C° 0 mm 10 mps 692 mmHg 76%

Mañana, 31 Octubre, Sábado

Tiempo Temperatura Precipitaciones Viento Presión Humedad
00:00 +3°C° 0.1 mm 11 mps 693 mmHg 74%
01:00 +2°C° 0.1 mm 12 mps 694 mmHg 72%
02:00 0°C° 0.1 mm 13 mps 696 mmHg 69%
03:00 -2°C° 0 mm 12 mps 697 mmHg 70%
04:00 -5°C° 0 mm 12 mps 698 mmHg 70%
05:00 -7°C° 0 mm 12 mps 700 mmHg 70%
06:00 -8°C° 0 mm 12 mps 701 mmHg 69%
07:00 -10°C° 0 mm 12 mps 703 mmHg 68%
08:00 -11°C° 0 mm 12 mps 704 mmHg 67%
09:00 -10°C° 0 mm 12 mps 706 mmHg 64%
10:00 -8°C° 0 mm 12 mps 707 mmHg 61%
11:00 -8°C° 0 mm 12 mps 708 mmHg 57%
12:00 -7°C° 0 mm 11 mps 709 mmHg 56%
13:00 -7°C° 0 mm 11 mps 710 mmHg 55%
14:00 -7°C° 0 mm 10 mps 711 mmHg 54%
15:00 -8°C° 0 mm 9 mps 712 mmHg 57%
16:00 -7°C° 0 mm 8 mps 713 mmHg 60%
17:00 -8°C° 0 mm 6 mps 714 mmHg 63%
18:00 -7°C° 0 mm 5 mps 715 mmHg 66%
19:00 -8°C° 0 mm 4 mps 715 mmHg 70%
20:00 -6°C° 0 mm 2 mps 716 mmHg 73%
21:00 -7°C° 0 mm 2 mps 716 mmHg 74%
22:00 -7°C° 0 mm 2 mps 716 mmHg 75%
23:00 -6°C° 0 mm 1 mps 716 mmHg 75%

Pasado mañana, 1 Noviembre, Domingo

Tiempo Temperatura Precipitaciones Viento Presión Humedad
00:00 -7°C° 0 mm 2 mps 716 mmHg 75%
01:00 -7°C° 0 mm 2 mps 716 mmHg 74%
02:00 -7°C° 0 mm 3 mps 716 mmHg 73%
03:00 -7°C° 0 mm 3 mps 715 mmHg 71%
04:00 -7°C° 0 mm 4 mps 715 mmHg 69%
05:00 -5°C° 0 mm 4 mps 714 mmHg 66%
06:00 -4°C° 0 mm 4 mps 714 mmHg 65%
07:00 -5°C° 0 mm 5 mps 714 mmHg 63%
08:00 -4°C° 0 mm 5 mps 714 mmHg 61%
09:00 -2°C° 0 mm 6 mps 713 mmHg 54%
10:00 +1°C° 0 mm 6 mps 713 mmHg 47%
11:00 +2°C° 0 mm 7 mps 713 mmHg 39%
12:00 +3°C° 0 mm 7 mps 712 mmHg 41%
13:00 +4°C° 0 mm 6 mps 712 mmHg 42%
14:00 +5°C° 0 mm 6 mps 711 mmHg 43%
15:00 +3°C° 0 mm 5 mps 711 mmHg 51%
16:00 +2°C° 0 mm 5 mps 711 mmHg 59%
17:00 +1°C° 0 mm 4 mps 711 mmHg 67%
18:00 +1°C° 0 mm 4 mps 711 mmHg 67%
19:00 +1°C° 0 mm 5 mps 711 mmHg 67%
20:00 +1°C° 0 mm 5 mps 711 mmHg 67%
21:00 +1°C° 0 mm 5 mps 711 mmHg 68%
22:00 +1°C° 0 mm 5 mps 711 mmHg 68%
23:00 +1°C° 0 mm 4 mps 711 mmHg 68%

2 Noviembre, Lunes

Tiempo Temperatura Precipitaciones Viento Presión Humedad
00:00 +1°C° 0 mm 4 mps 711 mmHg 68%
01:00 +1°C° 0 mm 4 mps 711 mmHg 69%
02:00 +1°C° 0 mm 4 mps 711 mmHg 69%
03:00 +1°C° 0 mm 4 mps 711 mmHg 69%
04:00 0°C° 0 mm 4 mps 711 mmHg 70%
05:00 +1°C° 0 mm 3 mps 711 mmHg 71%
06:00 +1°C° 0 mm 3 mps 711 mmHg 69%
07:00 +2°C° 0 mm 3 mps 711 mmHg 68%
08:00 +3°C° 0 mm 2 mps 710 mmHg 67%
09:00 +4°C° 0 mm 3 mps 710 mmHg 59%
10:00 +8°C° 0 mm 3 mps 710 mmHg 52%
11:00 +10°C° 0 mm 3 mps 709 mmHg 45%
12:00 +11°C° 0 mm 3 mps 709 mmHg 43%
13:00 +12°C° 0 mm 3 mps 708 mmHg 41%
14:00 +12°C° 0 mm 4 mps 707 mmHg 39%
15:00 +11°C° 0 mm 4 mps 707 mmHg 44%
16:00 +8°C° 0 mm 4 mps 706 mmHg 49%
17:00 +7°C° 0 mm 4 mps 705 mmHg 55%
18:00 +7°C° 0 mm 4 mps 705 mmHg 58%
19:00 +6°C° 0 mm 4 mps 704 mmHg 61%
20:00 +6°C° 0 mm 5 mps 703 mmHg 64%
21:00 +6°C° 0 mm 5 mps 702 mmHg 66%
22:00 +5°C° 0 mm 4 mps 702 mmHg 68%
23:00 +5°C° 0 mm 4 mps 701 mmHg 70%

3 Noviembre, Martes

Tiempo Temperatura Precipitaciones Viento Presión Humedad
00:00 +5°C° 0 mm 4 mps 701 mmHg 71%
01:00 +5°C° 0 mm 4 mps 701 mmHg 71%
02:00 +4°C° 0 mm 4 mps 700 mmHg 71%
03:00 +4°C° 0 mm 4 mps 700 mmHg 71%
04:00 +4°C° 0 mm 4 mps 700 mmHg 70%
05:00 +4°C° 0 mm 4 mps 700 mmHg 69%
06:00 +4°C° 0 mm 4 mps 700 mmHg 67%
07:00 +4°C° 0 mm 3 mps 700 mmHg 65%
08:00 +4°C° 0 mm 3 mps 700 mmHg 63%
09:00 +7°C° 0 mm 3 mps 700 mmHg 56%
10:00 +10°C° 0 mm 4 mps 699 mmHg 48%
11:00 +12°C° 0 mm 4 mps 699 mmHg 41%
12:00 +13°C° 0 mm 5 mps 699 mmHg 38%
13:00 +14°C° 0 mm 5 mps 698 mmHg 36%
14:00 +14°C° 0 mm 6 mps 698 mmHg 34%
15:00 +13°C° 0 mm 5 mps 698 mmHg 36%
16:00 +12°C° 0 mm 5 mps 697 mmHg 38%
17:00 +10°C° 0 mm 5 mps 697 mmHg 39%
18:00 +10°C° 0 mm 5 mps 697 mmHg 39%
19:00 +11°C° 0 mm 6 mps 696 mmHg 38%
20:00 +11°C° 0 mm 7 mps 696 mmHg 37%
21:00 +11°C° 0 mm 7 mps 696 mmHg 36%
22:00 +11°C° 0 mm 7 mps 696 mmHg 34%
23:00 +11°C° 0 mm 8 mps 697 mmHg 33%

4 Noviembre, Miércoles

Tiempo Temperatura Precipitaciones Viento Presión Humedad
00:00 +10°C° 0 mm 7 mps 697 mmHg 37%
01:00 +9°C° 0 mm 7 mps 698 mmHg 42%
02:00 +8°C° 0 mm 7 mps 698 mmHg 46%
03:00 +6°C° 0 mm 7 mps 699 mmHg 55%
04:00 +5°C° 0 mm 7 mps 700 mmHg 64%
05:00 +3°C° 0 mm 7 mps 701 mmHg 73%
06:00 +3°C° 0 mm 6 mps 702 mmHg 78%
07:00 +3°C° 0 mm 5 mps 703 mmHg 83%
08:00 +3°C° 0 mm 4 mps 704 mmHg 87%
09:00 +4°C° 0 mm 3 mps 704 mmHg 85%
10:00 +6°C° 0 mm 2 mps 704 mmHg 83%
11:00 +7°C° 0 mm 1 mps 705 mmHg 81%
12:00 +8°C° 0 mm 1 mps 705 mmHg 79%
13:00 +7°C° 0 mm 2 mps 705 mmHg 77%
14:00 +8°C° 0 mm 3 mps 705 mmHg 75%
15:00 +7°C° 0 mm 3 mps 704 mmHg 76%
16:00 +7°C° 0 mm 3 mps 704 mmHg 78%
17:00 +7°C° 0 mm 3 mps 704 mmHg 79%
18:00 +6°C° 0 mm 4 mps 703 mmHg 78%
19:00 +6°C° 0 mm 4 mps 703 mmHg 76%
20:00 +6°C° 0 mm 4 mps 702 mmHg 75%
21:00 +7°C° 0 mm 5 mps 702 mmHg 73%
22:00 +7°C° 0 mm 5 mps 702 mmHg 70%
23:00 +8°C° 0 mm 5 mps 701 mmHg 68%
Mostrar más

Necesitamos Su Consentimiento

Meteoprog y nuestros Proveedores de Servicios pueden almacenar y acceder a sus datos personales como cookies, identificadores de dispositivo u otras tecnologías similares de su dispositivo y procesar dichos datos para personalizar contenido y anuncios, además de ofrecer funciones de redes sociales y analizar el tráfico.

  • Almacenar y/o acceder a información en su dispositivo

    Se puede almacenar o acceder a cookies, identificadores de dispositivo u otra información de su dispositivo para los fines anteriormente indicados.

  • Anuncios y contenido personalizados, medición de anuncios y contenido, percepciones del público, y desarrollo de productos

    Los anuncios y el contenido pueden personalizarse en base a su perfil. Se pueden añadir más datos para personalizar mejor los anuncios y contenidos. Se puede medir el rendimiento de los anuncios y contenidos. Se puede obtener la percepción sobre el público que ha visto los anuncios y contenidos. Dichos datos pueden usarse para desarrollar o mejorar la experiencia del usuario, sistemas y software.

Al hacer clic en ‘Estoy De Acuerdo’ usted permitirá el uso de las cookies, identificadores de dispositivo, balizas web u otras tecnologías similares indicadas. Su configuración puede cambiarse desde el navegador de su dispositivo.

Para ciertos fines, los intereses legítimos pueden ser considerados por encima del consentimiento. Puede leer más sobre ello en nuestra Política de Privacidad y Cookies.